(°C)
(°C)
-1°
ЗСЗ
ЗСЗ
ЗСЗ
З
З
ЗСЗ
ЗСЗ
(km/h)
15-26
14-23
12-19
10-20
10-17
11-17
11-22
(mm)
0
0
0
0
0
0
0
(%)
6
7
7
2
2
1
1

Издигане на слънцето

/ 12.7°
sun-icon
UV 1
07:24
17:58
Нарастваща полу-луна (155°)
17:40
04:26

METAR за 52.53°С 31.02°И (UMGG)

Час Условия Температура/
Точка на оросяване
Вятър Видимост Времето Облаци Налягане Промяна Сурови
VFR 8°C / 4°C 280º 10kt Gust 16kt >10km - Broken Clouds 3900ft
Overcast 10000ft
1017 No Significant change UMGG 181300Z 28005G08MPS 9999 BKN039 OVC100 08/04 Q1017 R28/CLRD// NOSIG
MVFR 8°C / 4°C 280º 10kt Gust 16kt >10km - Broken Clouds 2100ft
Overcast 10000ft
1017 No Significant change UMGG 181230Z 28005G08MPS 9999 BKN021 OVC100 08/04 Q1017 R28/CLRD// NOSIG
MVFR 8°C / 4°C 280º 10kt Gust 16kt >10km - Broken Clouds 2000ft
Overcast 10000ft
1017 No Significant change UMGG 181200Z 28005G08MPS 9999 BKN020 OVC100 08/04 Q1017 R28/CLRD// NOSIG
MVFR 8°C / 4°C 280º 10kt Gust 16kt >10km - Broken Clouds 1700ft
Overcast 10000ft
1017 No Significant change UMGG 181130Z 28005G08MPS 9999 BKN017 OVC100 08/04 Q1017 R28/CLRD// NOSIG
MVFR 8°C / 4°C 280º 10kt Gust 16kt >10km - Broken Clouds 1700ft
Overcast 10000ft
1016 No Significant change UMGG 181100Z 28005G08MPS 9999 BKN017 OVC100 08/04 Q1016 R28/CLRD// NOSIG
MVFR 8°C / 4°C 280º 10kt Gust 16kt >10km - Overcast 1700ft 1016 No Significant change UMGG 181030Z 28005G08MPS 9999 OVC017 08/04 Q1016 R28/CLRD// NOSIG
MVFR 8°C / 4°C 280º 10kt Gust 16kt >10km - Broken Clouds 1800ft
Overcast 10000ft
1016 No Significant change UMGG 181000Z 28005G08MPS 9999 BKN018 OVC100 08/04 Q1016 R28/D NOSIG
MVFR 8°C / 3°C 280º 10kt Gust 16kt >10km - Broken Clouds 1800ft
Overcast 10000ft
1016 No Significant change UMGG 180930Z 28005G08MPS 9999 BKN018CB OVC100 08/03 Q1016 R28/CLRD// NOSIG
VFR 8°C / 3°C 280º 10kt Gust 16kt >10km - Broken Clouds 3200ft
Overcast 10000ft
1016 No Significant change UMGG 180900Z 28005G08MPS 9999 BKN032CB OVC100 08/03 Q1016 R28/CLRD// NOSIG
VFR 7°C / 3°C 270º 12kt >10km - Broken Clouds 3700ft
Overcast 10000ft
1016 No Significant change UMGG 180830Z 27006MPS 9999 BKN037CB OVC100 07/03 Q1016 R28/CLRD// NOSIG
VFR 7°C / 3°C 260º 12kt >10km - Broken Clouds 3800ft
Overcast 10000ft
1016 No Significant change UMGG 180800Z 26006MPS 9999 BKN038 OVC100 07/03 Q1016 R28/CLRD// NOSIG
VFR 6°C / 3°C 250º 12kt >10km - Clouds and Visibility OK 1016 No Significant change UMGG 180730Z 25006MPS CAVOK 06/03 Q1016 R28/CLRD// NOSIG
VFR 6°C / 3°C 240º 10kt >10km - Clouds and Visibility OK 1016 No Significant change UMGG 180700Z 24005MPS CAVOK 06/03 Q1016 R28/D NOSIG
VFR 5°C / 2°C 230º 10kt >10km - Clouds and Visibility OK 1016 No Significant change UMGG 180630Z 23005MPS CAVOK 05/02 Q1016 R28/CLRD// NOSIG
VFR 5°C / 2°C 240º 10kt >10km - Clouds and Visibility OK 1016 No Significant change UMGG 180600Z 24005MPS CAVOK 05/02 Q1016 R28/CLRD// NOSIG
VFR 4°C / 2°C 250º 10kt >10km - Clouds and Visibility OK 1016 No Significant change UMGG 180530Z 25005MPS CAVOK 04/02 Q1016 R28/CLRD// NOSIG
VFR 4°C / 2°C 230º 12kt >10km - Clouds and Visibility OK 1016 No Significant change UMGG 180500Z 23006MPS CAVOK 04/02 Q1016 R28/CLRD// NOSIG
VFR 4°C / 2°C 240º 12kt >10km - Clouds and Visibility OK 1016 No Significant change UMGG 180430Z 24006MPS CAVOK 04/02 Q1016 R28/CLRD// NOSIG
VFR 4°C / 2°C 240º 12kt >10km - Clouds and Visibility OK 1016 No Significant change UMGG 180400Z 24006MPS CAVOK 04/02 Q1016 R28/CLRD// NOSIG
VFR 4°C / 2°C 240º 14kt >10km - Scattered Clouds 4900ft
Broken Clouds 8400ft
1016 No Significant change UMGG 180330Z 24007MPS 9999 SCT049 BKN084 04/02 Q1016 R28/CLRD// NOSIG
VFR 4°C / 2°C 240º 14kt >10km - Scattered Clouds 4500ft
Broken Clouds 8400ft
1016 No Significant change UMGG 180300Z 24007MPS 9999 SCT045 BKN084 04/02 Q1016 R28/CLRD// NOSIG
VFR 4°C / 2°C 240º 12kt >10km - Clouds and Visibility OK 1016 No Significant change UMGG 180200Z 24006MPS CAVOK 04/02 Q1016 R28/CLRD// NOSIG
VFR 4°C / 1°C 240º 14kt >10km - Clouds and Visibility OK 1016 No Significant change UMGG 180100Z 24007MPS CAVOK 04/01 Q1016 R28/D NOSIG
VFR 4°C / 1°C 230º 14kt >10km - Clouds and Visibility OK 1016 No Significant change UMGG 180000Z 23007MPS CAVOK 04/01 Q1016 R28/CLRD// NOSIG

VFR

8°C / 4°C

[Още]
Вятър 280º 10kt Gust 16kt
Видимост >10km
Времето -
Облаци Broken Clouds 3900ft
Overcast 10000ft
Налягане 1017
Промяна No Significant change
Сурови UMGG 181300Z 28005G08MPS 9999 BKN039 OVC100 08/04 Q1017 R28/CLRD// NOSIG

MVFR

8°C / 4°C

[Още]
Вятър 280º 10kt Gust 16kt
Видимост >10km
Времето -
Облаци Broken Clouds 2100ft
Overcast 10000ft
Налягане 1017
Промяна No Significant change
Сурови UMGG 181230Z 28005G08MPS 9999 BKN021 OVC100 08/04 Q1017 R28/CLRD// NOSIG

MVFR

8°C / 4°C

[Още]
Вятър 280º 10kt Gust 16kt
Видимост >10km
Времето -
Облаци Broken Clouds 2000ft
Overcast 10000ft
Налягане 1017
Промяна No Significant change
Сурови UMGG 181200Z 28005G08MPS 9999 BKN020 OVC100 08/04 Q1017 R28/CLRD// NOSIG

MVFR

8°C / 4°C

[Още]
Вятър 280º 10kt Gust 16kt
Видимост >10km
Времето -
Облаци Broken Clouds 1700ft
Overcast 10000ft
Налягане 1017
Промяна No Significant change
Сурови UMGG 181130Z 28005G08MPS 9999 BKN017 OVC100 08/04 Q1017 R28/CLRD// NOSIG

MVFR

8°C / 4°C

[Още]
Вятър 280º 10kt Gust 16kt
Видимост >10km
Времето -
Облаци Broken Clouds 1700ft
Overcast 10000ft
Налягане 1016
Промяна No Significant change
Сурови UMGG 181100Z 28005G08MPS 9999 BKN017 OVC100 08/04 Q1016 R28/CLRD// NOSIG

MVFR

8°C / 4°C

[Още]
Вятър 280º 10kt Gust 16kt
Видимост >10km
Времето -
Облаци Overcast 1700ft
Налягане 1016
Промяна No Significant change
Сурови UMGG 181030Z 28005G08MPS 9999 OVC017 08/04 Q1016 R28/CLRD// NOSIG

MVFR

8°C / 4°C

[Още]
Вятър 280º 10kt Gust 16kt
Видимост >10km
Времето -
Облаци Broken Clouds 1800ft
Overcast 10000ft
Налягане 1016
Промяна No Significant change
Сурови UMGG 181000Z 28005G08MPS 9999 BKN018 OVC100 08/04 Q1016 R28/D NOSIG

MVFR

8°C / 3°C

[Още]
Вятър 280º 10kt Gust 16kt
Видимост >10km
Времето -
Облаци Broken Clouds 1800ft
Overcast 10000ft
Налягане 1016
Промяна No Significant change
Сурови UMGG 180930Z 28005G08MPS 9999 BKN018CB OVC100 08/03 Q1016 R28/CLRD// NOSIG

VFR

8°C / 3°C

[Още]
Вятър 280º 10kt Gust 16kt
Видимост >10km
Времето -
Облаци Broken Clouds 3200ft
Overcast 10000ft
Налягане 1016
Промяна No Significant change
Сурови UMGG 180900Z 28005G08MPS 9999 BKN032CB OVC100 08/03 Q1016 R28/CLRD// NOSIG

VFR

7°C / 3°C

[Още]
Вятър 270º 12kt
Видимост >10km
Времето -
Облаци Broken Clouds 3700ft
Overcast 10000ft
Налягане 1016
Промяна No Significant change
Сурови UMGG 180830Z 27006MPS 9999 BKN037CB OVC100 07/03 Q1016 R28/CLRD// NOSIG

VFR

7°C / 3°C

[Още]
Вятър 260º 12kt
Видимост >10km
Времето -
Облаци Broken Clouds 3800ft
Overcast 10000ft
Налягане 1016
Промяна No Significant change
Сурови UMGG 180800Z 26006MPS 9999 BKN038 OVC100 07/03 Q1016 R28/CLRD// NOSIG

VFR

6°C / 3°C

[Още]
Вятър 250º 12kt
Видимост >10km
Времето -
Облаци Clouds and Visibility OK
Налягане 1016
Промяна No Significant change
Сурови UMGG 180730Z 25006MPS CAVOK 06/03 Q1016 R28/CLRD// NOSIG

VFR

6°C / 3°C

[Още]
Вятър 240º 10kt
Видимост >10km
Времето -
Облаци Clouds and Visibility OK
Налягане 1016
Промяна No Significant change
Сурови UMGG 180700Z 24005MPS CAVOK 06/03 Q1016 R28/D NOSIG

VFR

5°C / 2°C

[Още]
Вятър 230º 10kt
Видимост >10km
Времето -
Облаци Clouds and Visibility OK
Налягане 1016
Промяна No Significant change
Сурови UMGG 180630Z 23005MPS CAVOK 05/02 Q1016 R28/CLRD// NOSIG

VFR

5°C / 2°C

[Още]
Вятър 240º 10kt
Видимост >10km
Времето -
Облаци Clouds and Visibility OK
Налягане 1016
Промяна No Significant change
Сурови UMGG 180600Z 24005MPS CAVOK 05/02 Q1016 R28/CLRD// NOSIG

VFR

4°C / 2°C

[Още]
Вятър 250º 10kt
Видимост >10km
Времето -
Облаци Clouds and Visibility OK
Налягане 1016
Промяна No Significant change
Сурови UMGG 180530Z 25005MPS CAVOK 04/02 Q1016 R28/CLRD// NOSIG

VFR

4°C / 2°C

[Още]
Вятър 230º 12kt
Видимост >10km
Времето -
Облаци Clouds and Visibility OK
Налягане 1016
Промяна No Significant change
Сурови UMGG 180500Z 23006MPS CAVOK 04/02 Q1016 R28/CLRD// NOSIG

VFR

4°C / 2°C

[Още]
Вятър 240º 12kt
Видимост >10km
Времето -
Облаци Clouds and Visibility OK
Налягане 1016
Промяна No Significant change
Сурови UMGG 180430Z 24006MPS CAVOK 04/02 Q1016 R28/CLRD// NOSIG

VFR

4°C / 2°C

[Още]
Вятър 240º 12kt
Видимост >10km
Времето -
Облаци Clouds and Visibility OK
Налягане 1016
Промяна No Significant change
Сурови UMGG 180400Z 24006MPS CAVOK 04/02 Q1016 R28/CLRD// NOSIG

VFR

4°C / 2°C

[Още]
Вятър 240º 14kt
Видимост >10km
Времето -
Облаци Scattered Clouds 4900ft
Broken Clouds 8400ft
Налягане 1016
Промяна No Significant change
Сурови UMGG 180330Z 24007MPS 9999 SCT049 BKN084 04/02 Q1016 R28/CLRD// NOSIG

VFR

4°C / 2°C

[Още]
Вятър 240º 14kt
Видимост >10km
Времето -
Облаци Scattered Clouds 4500ft
Broken Clouds 8400ft
Налягане 1016
Промяна No Significant change
Сурови UMGG 180300Z 24007MPS 9999 SCT045 BKN084 04/02 Q1016 R28/CLRD// NOSIG

VFR

4°C / 2°C

[Още]
Вятър 240º 12kt
Видимост >10km
Времето -
Облаци Clouds and Visibility OK
Налягане 1016
Промяна No Significant change
Сурови UMGG 180200Z 24006MPS CAVOK 04/02 Q1016 R28/CLRD// NOSIG

VFR

4°C / 1°C

[Още]
Вятър 240º 14kt
Видимост >10km
Времето -
Облаци Clouds and Visibility OK
Налягане 1016
Промяна No Significant change
Сурови UMGG 180100Z 24007MPS CAVOK 04/01 Q1016 R28/D NOSIG

VFR

4°C / 1°C

[Още]
Вятър 230º 14kt
Видимост >10km
Времето -
Облаци Clouds and Visibility OK
Налягане 1016
Промяна No Significant change
Сурови UMGG 180000Z 23007MPS CAVOK 04/01 Q1016 R28/CLRD// NOSIG

TAF за 52.53°С 31.02°И (UMGG)

From till


From till Wind 280º 12kt. Visibility 10km or more. Broken Clouds 1100ft.
Temporarly from till Wind 290º 14kt. Gust 23kt. Visibility 2100m. Light Showers Rain . Broken Clouds 700ft. Scattered Clouds 1500ft.
Becoming from till Wind 300º 12kt. Visibility 10km or more. Broken Clouds 1100ft.
Temporarly from till Wind 300º 14kt. Visibility 2000m. Mist . Broken Clouds 500ft.
Temporarly from till Wind 310º 14kt. Gust 23kt.

Сурови: TAF UMGG 181101Z 1812/1912 28006MPS 9999 BKN011 TEMPO 1812/1818 29007G12MPS 2100 -SHRA BKN007 SCT015CB BECMG 1818/1820 30006MPS TEMPO 1820/1906 30007MPS 2000 BR BKN005 TEMPO 1906/1912 31007G12MPS

Актуални сателитни и дъждовни снимки за 52.53°С 31.02°И

Маркерът за локация е поставен върху 52.53°С 31.02°И. [Още]

Сателитното изображение в реално време съчетава видимата светлина през деня с инфрачервеното лъчение през нощта. През нощта изображението не е тъмно, тъй като инфрачервеното лъчение може да открива температурни разлики. За съжаление ниските облаци и мъглата са трудни за разграничаване от температурите на земята и затова могат да бъдат почти невидими през нощта. Сателитните изображения на Meteosat за Европа се актуализират в реално време на всеки 5 минути. Изображенията GOES-16/GOES-17 (Северна и Южна Америка) и Химавари (Азия) се актуализират на всеки 10 минути.

Всички права запазени 2021 EUMETSAT / meteoblue. / Всички права запазени 2021 meteoblue

Радар и валежи в момента за 52.53°С 31.02°И

Капчица
Лек
Умерен
Тежък
Много тежък
Аве

Маркерът за локация обозначава 52.53°С 31.02°И. Анимацията показва Радара за валежи за последния час, както и прогноза за 1h. Дъждът или лекият сняг може да са невидими за радара. Интензивността на валежите е обозначена с цветни кодове, вариращи от светлосиньо до оранжево.